Chamiss Bay, British Columbia

11:16 AM PST on December 03, 2016 (GMT -0800)
Solander Island

Weather History for CWRU - March, 2013

Change the Weather History Date:

Thursday, March 7, 2013

  Actual Average Record
Temperature  
Mean Temperature 43 °F -  
Max Temperature 47 °F - - ()
Min Temperature 39 °F - - ()
Degree Days  
Heating Degree Days 22    
Moisture  
Dew Point 36 °F    
Average Humidity 76    
Maximum Humidity 87    
Minimum Humidity 61    
Precipitation  
Precipitation 0.00 in - - ()
Sea Level Pressure  
Sea Level Pressure 30.01 in    
Wind  
Wind Speed 10 mph ()    
Max Wind Speed 15 mph    
Max Gust Speed 21 mph    
T = Trace of Precipitation, MM = Missing Value Source: Averaged Metar Reports

Daily Weather History Graph

Daily Weather History Graph

Search for Another Location

Airport or City:

Trip Planner

Search our weather history database for the weather conditions in past years. The results will help you decide how hot, cold, wet, or windy it might be!

Date:

Astronomy

Mar. 07, 2013 Rise Set
Actual Time 7:01 AM PST 6:24 PM PST
Civil Twilight 6:29 AM PST 6:56 PM PST
Nautical Twilight 5:52 AM PST 7:34 PM PST
Astronomical Twilight 5:14 AM PST 8:12 PM PST
Moon 4:27 AM PST (3/7) 1:59 PM PST (3/7)
Length of Visible Light 12h 27m
Length of Day
11h 22m
Waning Crescent, 19% of the Moon is Illuminated
Mar 7
Waning Crescent
Mar 11
New
Mar 19
First Quarter
Mar 27
Full
Apr 2
Last Quarter

Hourly Weather History & Observations

Time (PST) Temp. Windchill Dew Point Humidity Pressure Visibility Wind Dir Wind Speed Gust Speed Precip Events Conditions
12:00 AM 39.7 °F 31.5 °F 31.8 °F 73% 29.84 in - North 15.0 mph - N/A   Unknown
1:00 AM 40.1 °F 32.0 °F 31.5 °F 71% 29.86 in - North 15.0 mph - N/A   Unknown
2:00 AM 40.6 °F 33.0 °F 33.6 °F 76% 29.88 in - NNE 13.8 mph - N/A   Unknown
3:00 AM 41.4 °F 36.2 °F 31.3 °F 67% 29.91 in - North 8.1 mph - N/A   Unknown
4:00 AM 41 °F - 32 °F 61% 29.91 in - North 10.4 mph - -  
4:00 AM 41.0 °F 34.7 °F 31.8 °F 70% 29.91 in - North 10.4 mph - N/A   Unknown
5:00 AM 39.9 °F 33.9 °F 34.0 °F 79% 29.92 in - North 9.2 mph - N/A   Unknown
6:00 AM 40.3 °F 35.5 °F 30.6 °F 68% 29.94 in - North 6.9 mph - N/A   Unknown
7:00 AM 40.5 °F 38.4 °F 34.2 °F 78% 29.95 in - NNE 3.5 mph - N/A   Unknown
8:00 AM 41.5 °F 39.6 °F 35.6 °F 79% 29.97 in - North 3.5 mph - N/A   Unknown
9:00 AM 42.6 °F 39.9 °F 36.0 °F 77% 29.98 in - NNE 4.6 mph - N/A   Unknown
10:00 AM 45 °F - 36 °F 62% 30.00 in - ESE 12.7 mph - -  
10:00 AM 45.0 °F 38.9 °F 36.3 °F 72% 30.00 in - ESE 12.7 mph - N/A   Unknown
11:00 AM 46.0 °F 41.9 °F 35.2 °F 66% 30.02 in - SE 8.1 mph - N/A   Unknown
12:00 PM 46.2 °F 42.2 °F 37.9 °F 73% 30.04 in - ESE 8.1 mph - N/A   Unknown
1:00 PM 46.6 °F - 40.1 °F 78% 30.05 in - ESE 12.7 mph - N/A   Unknown
2:00 PM 45.5 °F 39.9 °F 39.7 °F 80% 30.05 in - ESE 11.5 mph - N/A   Unknown
3:00 PM 45.9 °F 40.4 °F 39.6 °F 79% 30.06 in - ESE 11.5 mph - N/A   Unknown
4:00 PM 45 °F - 39 °F 72% 30.05 in - ESE 15.0 mph - -  
4:00 PM 44.8 °F 38.0 °F 38.8 °F 80% 30.05 in - ESE 15.0 mph 20.7 mph N/A   Unknown
5:00 PM 43.9 °F 37.5 °F 38.5 °F 81% 30.07 in - ESE 12.7 mph - N/A   Unknown
6:00 PM 43.3 °F 36.5 °F 38.3 °F 82% 30.07 in - ESE 13.8 mph - N/A   Unknown
7:00 PM 42.6 °F 36.8 °F 37.9 °F 83% 30.09 in - East 10.4 mph - N/A   Unknown
8:00 PM 42.6 °F 36.3 °F 38.3 °F 85% 30.10 in - East 11.5 mph - N/A   Unknown
9:00 PM 42.3 °F 36.8 °F 38.5 °F 86% 30.11 in - East 9.2 mph - N/A   Unknown
10:00 PM 42 °F - 38 °F 79% 30.12 in - East 6.9 mph - -  
10:00 PM 42.1 °F 37.7 °F 37.8 °F 85% 30.12 in - East 6.9 mph - N/A   Unknown
11:00 PM 41.4 °F 35.7 °F 37.8 °F 87% 30.12 in - ESE 9.2 mph - N/A   Unknown